| time (UTC) | temp F | wind direction | speed MPH | gust MPH | rain 1hr in | rain 24hr in | rain mn in | humidity % | barometer mb |
| 20260506221813 | 41 | 0 | 0.0 | 0.0 | 0.00 | 0.00 | 0.08 | 84 | |
| 20260506221313 | 41 | 0 | 0.0 | 0.0 | 0.00 | 0.00 | 0.08 | 84 | |
| 20260506220812 | 41 | 0 | 0.0 | 0.0 | 0.00 | 0.00 | 0.08 | 84 | |
| 20260506220312 | 41 | 0 | 0.0 | 0.0 | 0.00 | 0.00 | 0.08 | 84 | |
| 20260506215312 | 42 | 0 | 0.0 | 0.0 | 0.00 | 0.00 | 0.08 | 84 | |
| 20260506214811 | 42 | 0 | 0.0 | 0.0 | 0.00 | 0.00 | 0.08 | 84 | |
| 20260506213811 | 42 | 0 | 0.0 | 0.0 | 0.00 | 0.00 | 0.08 | 83 | |
| 20260506213310 | 42 | 0 | 0.0 | 0.0 | 0.00 | 0.00 | 0.08 | 83 | |
| 20260506212310 | 42 | 0 | 0.0 | 0.0 | 0.00 | 0.00 | 0.08 | 83 | |
| 20260506210809 | 42 | 0 | 0.0 | 0.0 | 0.00 | 0.00 | 0.08 | 83 | |
| 20260506210309 | 43 | 0 | 0.0 | 0.0 | 0.00 | 0.00 | 0.08 | 83 | |
| 20260506205808 | 43 | 0 | 0.0 | 0.0 | 0.00 | 0.00 | 0.08 | 83 | |
| 20260506205308 | 43 | 0 | 0.0 | 0.0 | 0.00 | 0.00 | 0.08 | 83 | |
| 20260506204308 | 44 | 0 | 0.0 | 0.0 | 0.00 | 0.00 | 0.08 | 84 | |
| 20260506203307 | 44 | 0 | 0.0 | 0.0 | 0.00 | 0.00 | 0.08 | 85 | |
| 20260506202807 | 44 | 0 | 0.0 | 0.0 | 0.00 | 0.00 | 0.08 | 84 | |
| 20260506202307 | 44 | 283 | 1.0 | 3.0 | 0.00 | 0.00 | 0.08 | 84 | |
| 20260506201306 | 45 | 0 | 0.0 | 0.0 | 0.00 | 0.00 | 0.08 | 84 | |
| 20260506200806 | 45 | 0 | 0.0 | 0.0 | 0.00 | 0.00 | 0.08 | 84 | |
| 20260506195805 | 45 | 0 | 0.0 | 0.0 | 0.00 | 0.00 | 0.08 | 84 | |
| 20260506195306 | 45 | 0 | 0.0 | 0.0 | 0.00 | 0.00 | 0.08 | 84 | |
| 20260506194804 | 46 | 0 | 0.0 | 0.0 | 0.00 | 0.00 | 0.08 | 84 | |
| 20260506193804 | 46 | 0 | 0.0 | 0.0 | 0.00 | 0.00 | 0.08 | 84 | |
| 20260506193304 | 46 | 0 | 0.0 | 0.0 | 0.00 | 0.00 | 0.08 | 84 | |
| 20260506192803 | 46 | 0 | 0.0 | 0.0 | 0.00 | 0.00 | 0.08 | 84 | |
| 20260506192305 | 46 | 0 | 0.0 | 0.0 | 0.00 | 0.00 | 0.08 | 83 | |
| 20260506191803 | 46 | 0 | 0.0 | 0.0 | 0.00 | 0.00 | 0.08 | 83 | |
| 20260506190802 | 46 | 0 | 0.0 | 0.0 | 0.00 | 0.00 | 0.08 | 83 | |
| 20260506190302 | 46 | 0 | 0.0 | 0.0 | 0.00 | 0.00 | 0.08 | 83 | |
| 20260506185802 | 47 | 0 | 0.0 | 0.0 | 0.00 | 0.00 | 0.08 | 83 | |
| 20260506185301 | 46 | 0 | 0.0 | 0.0 | 0.00 | 0.00 | 0.08 | 83 | |
| 20260506184801 | 46 | 0 | 0.0 | 0.0 | 0.00 | 0.00 | 0.08 | 83 | |
| 20260506184301 | 46 | 0 | 0.0 | 0.0 | 0.00 | 0.00 | 0.08 | 83 | |
| 20260506183801 | 47 | 0 | 0.0 | 0.0 | 0.00 | 0.00 | 0.08 | 83 | |
| 20260506183300 | 47 | 0 | 0.0 | 0.0 | 0.00 | 0.00 | 0.08 | 83 | |
| 20260506182800 | 47 | 0 | 0.0 | 0.0 | 0.00 | 0.00 | 0.08 | 83 | |
| 20260506182259 | 47 | 0 | 0.0 | 0.0 | 0.00 | 0.00 | 0.08 | 83 | |
| 20260506181759 | 47 | 0 | 0.0 | 0.0 | 0.00 | 0.00 | 0.08 | 82 | |
| 20260506181259 | 47 | 0 | 0.0 | 0.0 | 0.00 | 0.00 | 0.08 | 83 | |
| 20260506180759 | 47 | 0 | 0.0 | 0.0 | 0.00 | 0.00 | 0.08 | 83 | |
| 20260506180258 | 47 | 0 | 0.0 | 0.0 | 0.00 | 0.00 | 0.08 | 83 | |
| 20260506175758 | 48 | 0 | 0.0 | 0.0 | 0.00 | 0.00 | 0.08 | 82 | |
| 20260506175258 | 48 | 0 | 0.0 | 0.0 | 0.00 | 0.00 | 0.08 | 82 | |
| 20260506174757 | 48 | 0 | 0.0 | 0.0 | 0.00 | 0.00 | 0.08 | 82 | |
| 20260506174257 | 48 | 0 | 0.0 | 0.0 | 0.00 | 0.00 | 0.08 | 81 | |
| 20260506173256 | 48 | 0 | 0.0 | 0.0 | 0.00 | 0.00 | 0.08 | 82 | |
| 20260506172756 | 49 | 0 | 0.0 | 0.0 | 0.00 | 0.00 | 0.08 | 81 | |
| 20260506172256 | 49 | 319 | 0.0 | 1.0 | 0.00 | 0.00 | 0.08 | 82 | |
| 20260506171756 | 49 | 0 | 0.0 | 0.0 | 0.00 | 0.00 | 0.08 | 81 | |
| 20260506171255 | 49 | 0 | 0.0 | 0.0 | 0.00 | 0.00 | 0.08 | 82 | |
| 20260506170755 | 49 | 0 | 0.0 | 0.0 | 0.00 | 0.00 | 0.08 | 82 | |
| 20260506170255 | 49 | 0 | 0.0 | 0.0 | 0.00 | 0.00 | 0.08 | 82 | |
| 20260506165755 | 49 | 0 | 0.0 | 0.0 | 0.00 | 0.00 | 0.08 | 82 | |
| 20260506165254 | 49 | 0 | 0.0 | 0.0 | 0.00 | 0.00 | 0.08 | 82 | |
| 20260506164754 | 48 | 0 | 0.0 | 0.0 | 0.00 | 0.00 | 0.08 | 82 | |
| 20260506164254 | 48 | 0 | 0.0 | 0.0 | 0.00 | 0.00 | 0.08 | 81 | |
| 20260506162253 | 49 | 20 | 3.0 | 6.0 | 0.00 | 0.00 | 0.08 | 80 | |
| 20260506161752 | 49 | 294 | 2.0 | 4.0 | 0.00 | 0.00 | 0.08 | 82 | |
| 20260506161252 | 49 | 264 | 0.0 | 6.0 | 0.00 | 0.00 | 0.08 | 81 | |
| 20260506160752 | 49 | 0 | 0.0 | 0.0 | 0.00 | 0.00 | 0.08 | 82 | |
| 20260506160251 | 49 | 0 | 0.0 | 0.0 | 0.00 | 0.00 | 0.08 | 82 | |
| 20260506154751 | 49 | 0 | 0.0 | 0.0 | 0.00 | 0.00 | 0.08 | 81 | |
| 20260506154250 | 49 | 297 | 0.0 | 1.0 | 0.00 | 0.00 | 0.08 | 81 | |
| 20260506153250 | 50 | 0 | 0.0 | 0.0 | 0.00 | 0.00 | 0.08 | 80 | |
| 20260506152749 | 49 | 0 | 0.0 | 0.0 | 0.00 | 0.00 | 0.08 | 81 | |
| 20260506152249 | 50 | 312 | 0.0 | 1.0 | 0.00 | 0.00 | 0.08 | 81 | |
| 20260506151749 | 50 | 20 | 0.0 | 0.0 | 0.00 | 0.00 | 0.08 | 80 | |
| 20260506150748 | 50 | 0 | 0.0 | 0.0 | 0.00 | 0.00 | 0.08 | 81 | |
| 20260506150248 | 50 | 0 | 0.0 | 0.0 | 0.00 | 0.00 | 0.08 | 80 | |
| 20260506145748 | 51 | 20 | 0.0 | 1.0 | 0.00 | 0.00 | 0.08 | 80 | |
| 20260506145247 | 52 | 345 | 0.0 | 0.0 | 0.00 | 0.00 | 0.08 | 80 | |
| 20260506144747 | 51 | 0 | 0.0 | 0.0 | 0.00 | 0.00 | 0.08 | 80 | |
| 20260506143246 | 51 | 0 | 0.0 | 0.0 | 0.00 | 0.00 | 0.08 | 79 | |
| 20260506142746 | 51 | 0 | 0.0 | 0.0 | 0.00 | 0.00 | 0.08 | 79 | |
| 20260506142246 | 51 | 0 | 0.0 | 0.0 | 0.00 | 0.00 | 0.08 | 79 | |
| 20260506141746 | 52 | 325 | 0.0 | 2.0 | 0.00 | 0.00 | 0.07 | 78 | |
| 20260506141245 | 52 | 93 | 0.0 | 2.0 | 0.00 | 0.00 | 0.06 | 78 | |
| 20260506140745 | 52 | 8 | 1.0 | 3.0 | 0.00 | 0.00 | 0.06 | 79 | |
| 20260506140245 | 52 | 343 | 0.0 | 2.0 | 0.00 | 0.00 | 0.06 | 79 | |
| 20260506135746 | 52 | 23 | 1.0 | 5.0 | 0.00 | 0.00 | 0.06 | 80 | |
| 20260506135244 | 52 | 83 | 1.0 | 6.0 | 0.00 | 0.00 | 0.06 | 80 | |
| 20260506133243 | 51 | 11 | 2.0 | 5.0 | 0.00 | 0.00 | 0.06 | 82 | |
| 20260506132743 | 50 | 73 | 1.0 | 3.0 | 0.00 | 0.00 | 0.06 | 82 | |
| 20260506132242 | 50 | 15 | 1.0 | 3.0 | 0.00 | 0.00 | 0.06 | 82 | |
| 20260506131742 | 50 | 14 | 1.0 | 4.0 | 0.00 | 0.00 | 0.06 | 83 | |
| 20260506131242 | 50 | 68 | 1.0 | 4.0 | 0.00 | 0.00 | 0.06 | 83 | |
| 20260506130741 | 50 | 98 | 1.0 | 6.0 | 0.00 | 0.00 | 0.06 | 83 | |
| 20260506130241 | 50 | 72 | 2.0 | 5.0 | 0.00 | 0.00 | 0.06 | 83 | |
| 20260506125241 | 49 | 72 | 0.0 | 3.0 | 0.00 | 0.00 | 0.06 | 81 | |
| 20260506124740 | 49 | 94 | 1.0 | 4.0 | 0.00 | 0.00 | 0.06 | 82 | |
| 20260506124240 | 49 | 91 | 1.0 | 3.0 | 0.00 | 0.00 | 0.06 | 82 | |
| 20260506123240 | 48 | 77 | 2.0 | 4.0 | 0.00 | 0.00 | 0.06 | 83 | |
| 20260506122739 | 49 | 158 | 1.0 | 4.0 | 0.00 | 0.00 | 0.06 | 82 | |
| 20260506121739 | 49 | 278 | 0.0 | 4.0 | 0.00 | 0.00 | 0.06 | 83 | |
| 20260506121238 | 49 | 273 | 0.0 | 3.0 | 0.00 | 0.00 | 0.06 | 83 | |
| 20260506115738 | 48 | 290 | 0.0 | 3.0 | 0.00 | 0.00 | 0.06 | 83 | |
| 20260506115237 | 49 | 0 | 0.0 | 0.0 | 0.00 | 0.00 | 0.06 | 82 | |
| 20260506114737 | 49 | 0 | 0.0 | 0.0 | 0.00 | 0.00 | 0.06 | 82 | |
| 20260506114237 | 49 | 0 | 0.0 | 0.0 | 0.00 | 0.00 | 0.06 | 82 | |
| 20260506113736 | 49 | 0 | 0.0 | 0.0 | 0.00 | 0.00 | 0.06 | 83 | |
| 20260506113236 | 49 | 0 | 0.0 | 0.0 | 0.00 | 0.00 | 0.06 | 82 | |
| 20260506112236 | 49 | 58 | 0.0 | 2.0 | 0.00 | 0.00 | 0.06 | 82 | |
| 20260506111735 | 49 | 55 | 1.0 | 4.0 | 0.00 | 0.00 | 0.06 | 82 | |
| 20260506111235 | 49 | 0 | 0.0 | 0.0 | 0.00 | 0.00 | 0.06 | 82 | |
| 20260506110234 | 49 | 0 | 0.0 | 0.0 | 0.00 | 0.00 | 0.06 | 82 | |
| 20260506105734 | 49 | 0 | 0.0 | 0.0 | 0.00 | 0.00 | 0.06 | 83 | |
| 20260506105234 | 49 | 0 | 0.0 | 0.0 | 0.00 | 0.00 | 0.06 | 83 | |
| 20260506103233 | 49 | 0 | 0.0 | 0.0 | 0.00 | 0.00 | 0.06 | 83 | |
| 20260506102732 | 49 | 0 | 0.0 | 0.0 | 0.00 | 0.00 | 0.06 | 83 | |
| 20260506102232 | 49 | 0 | 0.0 | 0.0 | 0.00 | 0.00 | 0.06 | 83 | |
| 20260506101232 | 49 | 0 | 0.0 | 0.0 | 0.00 | 0.00 | 0.06 | 82 | |
| 20260506100231 | 49 | 0 | 0.0 | 0.0 | 0.00 | 0.00 | 0.06 | 82 | |
| 20260506095230 | 49 | 0 | 0.0 | 0.0 | 0.00 | 0.00 | 0.06 | 82 | |
| 20260506094730 | 49 | 0 | 0.0 | 0.0 | 0.00 | 0.00 | 0.05 | 82 | |
| 20260506094230 | 49 | 0 | 0.0 | 0.0 | 0.00 | 0.00 | 0.05 | 82 | |
| 20260506093229 | 49 | 0 | 0.0 | 0.0 | 0.00 | 0.00 | 0.05 | 81 | |
| 20260506092229 | 49 | 0 | 0.0 | 0.0 | 0.00 | 0.00 | 0.04 | 82 | |
| 20260506091728 | 49 | 0 | 0.0 | 0.0 | 0.00 | 0.00 | 0.04 | 81 | |
| 20260506091228 | 49 | 0 | 0.0 | 0.0 | 0.00 | 0.00 | 0.04 | 81 | |
| 20260506085227 | 49 | 0 | 0.0 | 0.0 | 0.00 | 0.00 | 0.04 | 83 | |
| 20260506084727 | 49 | 0 | 0.0 | 0.0 | 0.00 | 0.00 | 0.04 | 83 | |
| 20260506084227 | 49 | 0 | 0.0 | 0.0 | 0.00 | 0.00 | 0.04 | 83 | |
| 20260506082225 | 48 | 0 | 0.0 | 0.0 | 0.00 | 0.00 | 0.04 | 84 | |
| 20260506080725 | 48 | 0 | 0.0 | 0.0 | 0.00 | 0.00 | 0.04 | 86 | |
| 20260506080224 | 47 | 0 | 0.0 | 0.0 | 0.00 | 0.00 | 0.04 | 86 | |
| 20260506071723 | 47 | 0 | 0.0 | 0.0 | 0.00 | 0.00 | 0.01 | 86 | |
| 20260506070221 | 46 | 0 | 0.0 | 0.0 | 0.00 | 0.00 | 0.01 | 86 | |
| 20260506062219 | 46 | 0 | 0.0 | 0.0 | 0.00 | 0.00 | 0.01 | 87 | |
| 20260506061718 | 45 | 56 | 0.0 | 2.0 | 0.00 | 0.00 | 0.01 | 87 | |
| 20260506060718 | 44 | 0 | 0.0 | 0.0 | 0.00 | 0.00 | 0.01 | 87 | |
| 20260506060218 | 45 | 0 | 0.0 | 0.0 | 0.00 | 0.00 | 0.01 | 87 | |
| 20260506051215 | 44 | 129 | 0.0 | 3.0 | 0.00 | 0.00 | 0.01 | 87 | |
| 20260506050714 | 44 | 0 | 0.0 | 0.0 | 0.00 | 0.00 | 0.01 | 86 | |
| 20260506050214 | 44 | 0 | 0.0 | 0.0 | 0.00 | 0.00 | 0.01 | 85 | |
| 20260506044713 | 44 | 0 | 0.0 | 0.0 | 0.00 | 0.00 | 0.01 | 84 | |
| 20260506042712 | 44 | 0 | 0.0 | 0.0 | 0.00 | 0.00 | 0.01 | 83 | |
| 20260506042212 | 44 | 0 | 0.0 | 0.0 | 0.00 | 0.00 | 0.01 | 83 | |
| 20260506041712 | 44 | 0 | 0.0 | 0.0 | 0.00 | 0.00 | 0.01 | 83 | |
| 20260506041211 | 44 | 0 | 0.0 | 0.0 | 0.00 | 0.00 | 0.01 | 83 | |
| 20260506040711 | 44 | 0 | 0.0 | 0.0 | 0.00 | 0.00 | 0.01 | 83 | |
| 20260506035210 | 45 | 0 | 0.0 | 0.0 | 0.00 | 0.00 | 0.01 | 82 | |
| 20260506034210 | 45 | 0 | 0.0 | 0.0 | 0.00 | 0.00 | 0.01 | 83 | |
| 20260506032709 | 45 | 0 | 0.0 | 0.0 | 0.00 | 0.00 | 0.01 | 82 | |
| 20260506032208 | 45 | 0 | 0.0 | 0.0 | 0.00 | 0.00 | 0.01 | 82 | |
| 20260506031708 | 46 | 0 | 0.0 | 0.0 | 0.00 | 0.00 | 0.01 | 82 | |
| 20260506030708 | 46 | 0 | 0.0 | 0.0 | 0.00 | 0.00 | 0.01 | 82 | |
| 20260506030207 | 46 | 0 | 0.0 | 0.0 | 0.00 | 0.00 | 0.01 | 82 | |
| 20260506025707 | 46 | 0 | 0.0 | 0.0 | 0.00 | 0.00 | 0.01 | 82 | |
| 20260506025207 | 46 | 0 | 0.0 | 0.0 | 0.00 | 0.00 | 0.01 | 82 | |
| 20260506024707 | 46 | 0 | 0.0 | 0.0 | 0.00 | 0.00 | 0.01 | 82 | |
| 20260506024206 | 46 | 0 | 0.0 | 0.0 | 0.00 | 0.00 | 0.01 | 82 | |
| 20260506022705 | 47 | 0 | 0.0 | 0.0 | 0.00 | 0.00 | 0.01 | 83 | |
| 20260506022205 | 46 | 0 | 0.0 | 0.0 | 0.00 | 0.00 | 0.01 | 83 | |
| 20260506021204 | 47 | 0 | 0.0 | 0.0 | 0.00 | 0.00 | 0.01 | 83 | |
| 20260506020205 | 46 | 0 | 0.0 | 0.0 | 0.00 | 0.00 | 0.01 | 83 | |
| 20260506015704 | 47 | 0 | 0.0 | 0.0 | 0.00 | 0.00 | 0.01 | 83 | |
| 20260506015203 | 47 | 0 | 0.0 | 0.0 | 0.00 | 0.00 | 0.01 | 83 | |
| 20260506014703 | 47 | 0 | 0.0 | 0.0 | 0.00 | 0.00 | 0.01 | 83 | |
| 20260506013703 | 47 | 0 | 0.0 | 0.0 | 0.00 | 0.00 | 0.01 | 82 | |
| 20260506013202 | 47 | 0 | 0.0 | 0.0 | 0.00 | 0.00 | 0.01 | 82 | |
| 20260506012702 | 47 | 0 | 0.0 | 0.0 | 0.00 | 0.00 | 0.01 | 82 | |
| 20260506011701 | 48 | 0 | 0.0 | 0.0 | 0.00 | 0.00 | 0.01 | 83 | |
| 20260506011201 | 47 | 0 | 0.0 | 0.0 | 0.00 | 0.00 | 0.01 | 83 | |
| 20260506005700 | 48 | 0 | 0.0 | 0.0 | 0.00 | 0.00 | 0.01 | 82 | |
| 20260506004700 | 48 | 0 | 0.0 | 0.0 | 0.00 | 0.00 | 0.01 | 82 | |
| 20260506004159 | 48 | 0 | 0.0 | 0.0 | 0.00 | 0.00 | 0.01 | 82 | |
| 20260506003659 | 48 | 0 | 0.0 | 0.0 | 0.00 | 0.00 | 0.01 | 82 | |
| 20260506003159 | 48 | 0 | 0.0 | 0.0 | 0.00 | 0.00 | 0.01 | 82 | |
| 20260506002659 | 48 | 0 | 0.0 | 0.0 | 0.00 | 0.00 | 0.01 | 82 | |
| 20260506002158 | 48 | 0 | 0.0 | 0.0 | 0.00 | 0.00 | 0.01 | 82 | |
| 20260506001658 | 48 | 0 | 0.0 | 0.0 | 0.00 | 0.00 | 0.01 | 82 | |
| 20260506001158 | 49 | 0 | 0.0 | 0.0 | 0.00 | 0.00 | 0.01 | 82 | |
| 20260506000658 | 48 | 0 | 0.0 | 0.0 | 0.00 | 0.00 | 0.01 | 82 | |
| 20260506000157 | 48 | 0 | 0.0 | 0.0 | 0.00 | 0.00 | 0.01 | 82 | |
| 20260505235657 | 49 | 0 | 0.0 | 0.0 | 0.00 | 0.00 | 0.01 | 82 | |
| 20260505235157 | 49 | 0 | 0.0 | 0.0 | 0.00 | 0.00 | 0.01 | 81 | |
| 20260505234656 | 49 | 0 | 0.0 | 0.0 | 0.00 | 0.00 | 0.01 | 82 | |
| 20260505234156 | 49 | 0 | 0.0 | 0.0 | 0.00 | 0.00 | 0.01 | 82 | |
| 20260505233155 | 49 | 0 | 0.0 | 0.0 | 0.00 | 0.00 | 0.01 | 82 | |
| 20260505232655 | 49 | 0 | 0.0 | 0.0 | 0.00 | 0.00 | 0.01 | 82 | |
| 20260505232155 | 49 | 0 | 0.0 | 0.0 | 0.00 | 0.00 | 0.01 | 82 | |
| 20260505231655 | 49 | 0 | 0.0 | 0.0 | 0.00 | 0.00 | 0.01 | 82 | |
| 20260505231154 | 49 | 0 | 0.0 | 0.0 | 0.00 | 0.00 | 0.01 | 82 | |
| 20260505230654 | 49 | 0 | 0.0 | 0.0 | 0.00 | 0.00 | 0.01 | 83 | |
| 20260505230154 | 49 | 0 | 0.0 | 0.0 | 0.00 | 0.00 | 0.00 | 83 | |
| 20260505225654 | 49 | 70 | 1.0 | 3.0 | 0.00 | 0.00 | 0.09 | 83 | |
| 20260505225153 | 49 | 0 | 0.0 | 0.0 | 0.00 | 0.00 | 0.09 | 82 | |
| 20260505224653 | 49 | 0 | 0.0 | 0.0 | 0.00 | 0.00 | 0.09 | 82 | |
| 20260505224153 | 49 | 0 | 0.0 | 0.0 | 0.00 | 0.00 | 0.09 | 82 | |
| 20260505223652 | 49 | 0 | 0.0 | 0.0 | 0.00 | 0.00 | 0.09 | 82 | |
| 20260505223152 | 49 | 0 | 0.0 | 0.0 | 0.00 | 0.00 | 0.09 | 82 |